Weather History for St. Joseph, MO

Change the Weather History Date:

Saturday, August 3, 2013

  Actual Average Record
Temperature  
Mean Temperature 76 °F 77 °F  
Max Temperature 86 °F 87 °F 109 °F (1918)
Min Temperature 66 °F 67 °F 53 °F (1975)
Degree Days  
Heating Degree Days 0 0  
Month to date heating degree days 0 0  
Since 1 June heating degree days 17 9  
Since 1 July heating degree days 2 1  
Cooling Degree Days 11 12  
Month to date cooling degree days 33 36  
Year to date cooling degree days 780 790  
Since 1 June cooling degree days 654 677  
Growing Degree Days 25 (Base 50)    
Moisture  
Dew Point 64 °F    
Average Humidity 72    
Maximum Humidity 93    
Minimum Humidity 51    
Precipitation  
Precipitation 0.00 in 0.10 in 2.10 in (1972)
Month to date precipitation 0.55 0.29  
Year to date precipitation 18.96 22.61  
Sea Level Pressure  
Sea Level Pressure 30.05 in    
Wind  
Wind Speed 8 mph (NE)    
Max Wind Speed 14 mph    
Max Gust Speed 20 mph    
Visibility 10 miles    
Events      
T = Trace of Precipitation, MM = Missing Value Source: NWS Daily Summary

Daily Weather History Graph

Daily Weather History Graph

Search for Another Location

Airport:

Trip Planner

Search our weather history database for the weather conditions in past years. The results will help you decide how hot, cold, wet, or windy it might be!

Date:

Astronomy

Aug. 03, 2013 Rise Set
Actual Time 6:20 AM CDT 8:30 PM CDT
Civil Twilight 5:50 AM CDT 9:00 PM CDT
Nautical Twilight 5:13 AM CDT 9:36 PM CDT
Astronomical Twilight 4:33 AM CDT 10:16 PM CDT
Moon 3:30 AM CDT (8/3) 6:13 PM CDT (8/3)
Length of Visible Light 15h 09m
Length of Day
14h 09m
Waning Crescent, 9% of the Moon is Illuminated
Aug 3
Waning Crescent
Aug 6
New
Aug 14
First Quarter
Aug 20
Full
Aug 28
Last Quarter

Hourly Weather History & Observations

Time (CDT) Temp. Heat Index Dew Point Humidity Pressure Visibility Wind Dir Wind Speed Gust Speed Precip Events Conditions
12:53 AM 72.0 °F - 69.1 °F 91% 29.95 in 10.0 mi NE 8.1 mph - N/A   Clear
1:53 AM 72.0 °F - 66.9 °F 84% 29.96 in 10.0 mi NE 9.2 mph - N/A   Mostly Cloudy
2:53 AM 71.1 °F - 63.0 °F 75% 29.96 in 10.0 mi NNE 8.1 mph - N/A   Overcast
3:53 AM 69.1 °F - 62.1 °F 78% 29.96 in 10.0 mi NE 8.1 mph - N/A   Overcast
4:53 AM 68.0 °F - 61.0 °F 78% 29.98 in 10.0 mi NNE 6.9 mph - N/A   Overcast
5:53 AM 66.9 °F - 60.1 °F 79% 30.00 in 10.0 mi NE 6.9 mph - N/A   Clear
6:53 AM 66.9 °F - 59.0 °F 76% 30.02 in 10.0 mi NE 8.1 mph - N/A   Overcast
7:53 AM 68.0 °F - 59.0 °F 73% 30.05 in 10.0 mi ENE 8.1 mph - N/A   Partly Cloudy
8:53 AM 71.1 °F - 60.1 °F 68% 30.06 in 10.0 mi ENE 9.2 mph - N/A   Clear
9:53 AM 75.0 °F - 61.0 °F 62% 30.06 in 10.0 mi ENE 9.2 mph - N/A   Clear
10:53 AM 78.1 °F - 63.0 °F 60% 30.09 in 10.0 mi ENE 8.1 mph - N/A   Clear
11:53 AM 81.0 °F 82.7 °F 64.9 °F 58% 30.09 in 10.0 mi ENE 5.8 mph - N/A   Clear
12:53 PM 82.9 °F 85.4 °F 66.9 °F 58% 30.08 in 10.0 mi NE 8.1 mph - N/A   Clear
1:53 PM 84.0 °F 87.0 °F 68.0 °F 58% 30.08 in 10.0 mi Variable 4.6 mph - N/A   Clear
2:53 PM 82.9 °F 85.8 °F 68.0 °F 60% 30.08 in 10.0 mi Variable 6.9 mph - N/A   Mostly Cloudy
3:53 PM 84.9 °F 88.8 °F 69.1 °F 59% 30.07 in 10.0 mi NNE 10.4 mph - N/A   Mostly Cloudy
4:53 PM 82.0 °F 84.1 °F 66.0 °F 58% 30.07 in 10.0 mi NNE 8.1 mph - N/A   Overcast
5:53 PM 84.0 °F 85.8 °F 64.9 °F 53% 30.05 in 10.0 mi ENE 10.4 mph - N/A   Scattered Clouds
6:53 PM 84.0 °F 85.4 °F 64.0 °F 51% 30.04 in 10.0 mi ENE 5.8 mph - N/A   Clear
7:53 PM 79.0 °F - 66.0 °F 64% 30.05 in 10.0 mi Calm Calm - N/A   Clear
8:53 PM 75.0 °F - 70.0 °F 84% 30.07 in 10.0 mi North 8.1 mph - N/A   Clear
9:53 PM 77.0 °F - 61.0 °F 58% 30.10 in 10.0 mi ENE 11.5 mph - N/A   Scattered Clouds
10:53 PM 77.0 °F - 60.1 °F 56% 30.12 in 10.0 mi ENE 10.4 mph - N/A   Overcast
11:53 PM 75.0 °F - 57.0 °F 53% 30.13 in 10.0 mi East 10.4 mph - N/A   Overcast